Location: LDNL
(36.4545°S, 141.6685°E)
Time: 07:33:55
(UTC+11:00)

Explorer 11/Cluster Stage 4 - Visible Passes

Search period start: 26 January 2022 00:00
Search period end: 05 February 2022 00:00
Orbit: 467 x 1255 km, 28.8° (Epoch: 25 January)

Date Brightness Start Highest point End Pass type
(mag) Time Alt. Az. Time Alt. Az. Time Alt. Az.
26 Jan 9.0 21:39:26 10° WNW 21:43:41 16° NNW 21:47:36 10° N visible
27 Jan 9.1 21:28:12 10° WNW 21:32:02 14° NNW 21:35:37 10° N visible
28 Jan 9.3 21:17:09 10° WNW 21:20:22 13° NW 21:23:25 10° N visible
29 Jan 9.5 21:06:26 10° NW 21:08:40 11° NW 21:10:52 10° NNW visible
